Voltar ao catálogo

STARLINK-6159

AtivoComunicaçõesVLEO
NORAD 56381·PAYLOAD·🇺🇸 United States

Lançado May 4, 2023 de Cape Canaveral Space Force Station

Loading…

Próximas Passagens (próximas 24 horas)

TLE

AtualizadoSource: CelesTrak SupGP

Época: Sep 14, 2026, 21:07 UTC

1 56381C 23061H   26257.88034722  .00012906  00000+0  46744-3 0  2573
2 56381  42.9997 209.7517 0000766 240.7131   1.3722 15.27573884    19

Acompanhe STARLINK-6159 em tempo real com AllMySat

Download on the App Store